Location: Rounton
(54.4000°N, 1.3500°W)
Time: 21:19:24
(UTC+01:00)

YAOGAN 20A - Pass Details

Date: 30 June 2022
Orbit: 891 x 1288 km, 63.4° (Epoch: 18 August)

Event Time Altitude Azimuth Distance (km) Brightness Sun altitude
Rises 22:55:44 0° 295° (WNW) 3,697 9.0 -7.3°
Reaches altitude 10° 22:58:23 10° 302° (WNW) 2,801 8.4 -7.5°
Maximum altitude 23:04:41 43° 13° (NNE) 1,484 6.3 -8.0°
Drops below altitude 10° 23:11:36 10° 84° (E) 3,074 7.3 -8.5°
Sets 23:14:38 0° 91° (E) 4,093 7.9 -8.7°
